Regional Weather Roundup
Issued by NWS

Home | Current Version | Previous Version | Text Only | Print | Product List | Glossary Off
Versions: 1 2 3 4 5 6 7 8 9 10 11 12 13 14 15 16 17 18 19 20 21 22 23 24 25 26 27 28 29 30 31 32 33 34 35 36 37 38 39 40 41 42 43 44 45 46 47 48 49 50

000
ASUS45 KABQ 200901
RWRNM
NEW MEXICO REGIONAL WEATHER ROUNDUP
NATIONAL WEATHER SERVICE ALBUQUERQUE NM
300 AM MDT FRI OCT 20 2017

NOTE: "FAIR" MEANS FEW OR NO CLOUDS BELOW 12,000 FEET AGL WITH NO
       SIGNIFICANT WEATHER OR OBSTRUCTIONS TO VISION.

      THIS PRODUCT IS RELEASED AS TWO VERSIONS.  ONE VERSION NEAR
      THE TOP OF THE HOUR CONTAINING PRELIMINARY DATA FROM ALBUQUERQUE
      AND OTHER STATIONS.  A FINAL VERSION WITH ADDITIONAL DATA IS
      ISSUED ABOUT 10 MINUTES AFTER THE HOUR.

NMZ501-503-504-510>518-201000-
NORTHWEST PLATEAU/NORTHCENTRAL MOUNTAINS

CITY           SKY/WX    TMP DP  RH WIND       PRES   REMARKS
FARMINGTON     MOCLDY    49  38  65 N6        29.98F
LOS ALAMOS     FAIR      52  39  61 S9        30.09F
SANTA FE       FAIR      51  45  79 SW3       30.07F
TAOS           CLOUDY    49  36  61 NE3       30.11F
ANGEL FIRE     FAIR      30  28  92 CALM      30.13F

$$
NMZ402-403-502-505>509-201000-
WESTCENTRAL MOUNTAINS/SOUTHWEST MOUNTAINS

CITY           SKY/WX    TMP DP  RH WIND       PRES   REMARKS
GALLUP         FAIR      40  35  83 CALM      30.06F
GRANTS         FAIR      43  42  97 CALM      30.10S
SILVER CITY    FAIR      44  40  83 CALM      30.09S

$$
NMZ407-409-411-412-201000-
SOUTHERN DESERTS

CITY           SKY/WX    TMP DP  RH WIND       PRES   REMARKS
DEMING         FAIR      53  50  89 N3        30.06S
LAS CRUCES     FAIR      55  53  94 S7        30.07S
ALAMOGORDO     FAIR      54  54 100 SW8       30.05S
T OR C         FAIR      52  49  89 NW7       30.04F

$$
NMZ519>523-201000-
CENTRAL VALLEYS/CENTRAL HIGHLANDS

CITY           SKY/WX    TMP DP  RH WIND       PRES   REMARKS
ALBUQUERQUE    MOCLDY    52  49  89 SE7       30.05F
DOUBLE EAGLE   FAIR      44  43  97 SE5       30.07
MORIARTY ARPT  FAIR      49  44  85 E3        30.08F
CLINES CORNERS FAIR      47  42  83 W13       30.10S
BELEN          FAIR      51  49  93 S3        30.05S
SOCORRO        FAIR      50  48  93 S7        30.04F

$$
NMZ524>526-539-540-201000-
SOUTHCENTRAL MOUNTAINS

CITY           SKY/WX    TMP DP  RH WIND       PRES   REMARKS
RUIDOSO        FAIR      48  41  76 W6        30.14F

$$
NMZ527>531-201000-
NORTHEAST HIGHLANDS/NORTHEAST PLAINS

CITY           SKY/WX    TMP DP  RH WIND       PRES   REMARKS
LAS VEGAS      FAIR      45  38  76 S13       30.03F
RATON          FAIR      41  39  93 NW5       29.98F
CLAYTON        FAIR      49  49 100 SW12      29.93F

$$
NMZ532>537-201000-
EASTCENTRAL PLAINS

CITY           SKY/WX    TMP DP  RH WIND       PRES   REMARKS
SANTA ROSA     FAIR      53  51  94 S8        29.99S
TUCUMCARI      FAIR      57  52  83 SW6       29.93S
CANNON AFB     CLOUDY    56  56 100 S17       30.00F
CLOVIS AIRPORT CLOUDY    56  53  90 SW15      30.00

$$
NMZ028-029-538-201000-
SOUTHEAST PLAINS

CITY           SKY/WX    TMP DP  RH WIND       PRES   REMARKS
ROSWELL        FAIR      58  56  93 S8        30.00F
ARTESIA        FAIR      59  59 100 S23       29.99F
CARLSBAD       MOCLDY    58  58 100 SE13      30.02F
HOBBS          CLOUDY    57  57 100 SW7       30.10F


$$




USA.gov is the U.S. government's official web portal to all federal, state and local government web resources and services.